GFSNIL_sfc_temp_000.txt.gz
Temp
74 74 75 75 76 76 77 77 77 75 75 75 74 73 72 71 70 67 63 62 62 62
74 73 73 75 76 76 76 76 77 76 74 74 75 74 73 71 69 69 67 64 62 62
72 73 73 73 73 74 75 75 75 74 74 74 74 74 73 71 71 69 67 65 64 63
71 72 72 72 73 73 74 75 74 74 73 73 73 73 72 71 70 68 68 66 64 64
70 71 71 72 72 73 72 73 73 73 73 72 72 72 71 70 69 68 66 66 65 64
70 69 70 70 71 72 71 72 72 71 70 70 70 70 70 70 70 70 69 67 65 66
68 69 69 69 69 69 70 70 70 71 70 70 69 69 69 69 69 67 69 67 67 66
66 67 67 66 67 69 69 69 69 68 69 70 69 68 67 67 66 65 66 66 66 65
63 63 62 63 64 65 66 68 69 68 68 68 68 60 56 59 65 64 63 63 64 64
60 60 60 61 62 62 63 65 65 67 68 68 68 59 56 54 60 62 63 63 62 62
58 58 59 59 60 60 62 62 63 64 65 65 66 56 55 53 61 62 62 62 61 61
56 56 57 57 58 59 59 60 61 62 62 62 65 56 53 54 61 58 59 60 60 60
55 55 55 56 56 57 58 58 59 59 61 59 61 58 54 54 60 58 57 57 58 53
54 54 55 55 56 56 56 56 56 58 59 60 59 60 53 52 56 57 57 56 55 55

GFSNIL_sfc_temp_003.txt.gz
Temp
76 75 75 76 77 77 77 78 80 78 76 75 75 75 74 72 71 70 69 67 66 65
75 74 74 75 76 76 77 77 77 77 77 76 75 76 74 72 71 71 70 68 66 65
73 74 74 74 73 74 75 76 76 76 76 76 76 75 74 73 73 71 70 69 67 65
72 73 73 73 73 73 74 74 73 74 74 74 74 75 73 73 72 71 70 70 68 66
72 72 72 72 72 72 72 73 72 73 72 72 72 72 72 71 71 70 69 69 68 66
69 69 69 69 70 71 71 71 72 71 70 70 69 69 70 70 70 69 69 68 67 67
66 66 66 67 67 67 68 67 68 69 70 69 69 68 68 68 67 67 68 68 67 68
64 65 64 64 64 65 65 66 66 66 67 68 68 69 67 66 65 65 65 66 66 66
62 62 61 62 62 63 63 63 64 64 65 65 67 60 57 56 62 63 62 62 64 65
60 59 59 60 60 60 60 62 61 63 63 63 64 59 57 55 60 61 61 61 61 62
57 56 57 58 58 58 60 60 60 61 61 60 62 56 54 54 59 60 61 61 61 60
55 55 55 55 56 57 57 57 58 58 59 59 60 55 53 53 57 56 58 59 60 60
54 54 53 54 54 56 56 56 57 57 59 57 58 55 52 53 55 52 53 54 57 55
52 52 53 53 54 54 54 54 55 55 57 57 56 56 52 51 52 51 51 51 51 53

GFSNIL_sfc_temp_006.txt.gz
Temp
63 62 63 63 65 65 66 66 67 67 67 67 68 68 68 68 67 67 66 65 65 65
62 62 61 62 62 62 63 68 67 65 66 67 69 69 69 67 68 67 67 65 65 65
62 62 62 62 61 62 62 63 63 63 63 64 65 66 66 67 67 67 67 67 66 66
60 61 62 62 63 63 63 63 63 63 63 63 62 64 65 66 66 65 66 66 66 65
59 59 58 59 60 61 61 63 63 63 63 64 63 63 62 63 64 63 63 64 65 65
57 56 56 57 59 60 60 60 61 61 61 61 62 63 63 63 63 62 63 63 63 64
55 55 56 57 57 58 59 58 59 60 60 60 61 62 62 62 59 59 61 61 61 62
54 55 55 55 56 57 57 58 58 58 58 59 60 62 58 59 58 57 57 58 59 60
54 53 53 53 54 54 55 55 56 56 56 56 59 56 56 56 55 55 55 55 57 58
52 51 51 52 52 52 51 53 52 54 54 54 55 55 55 53 53 53 53 54 54 55
49 49 50 50 49 49 51 50 51 52 52 53 55 53 52 51 53 51 51 51 52 53
48 47 47 47 47 48 48 48 49 51 51 51 52 51 51 51 50 49 49 52 52 53
46 46 45 45 45 47 47 48 49 49 51 51 50 50 51 50 49 46 47 48 48 49
45 44 45 45 45 45 45 46 46 47 48 48 48 48 50 49 47 46 44 43 45 47

GFSNIL_sfc_temp_009.txt.gz
Temp
58 57 58 57 57 57 58 59 60 62 62 63 67 68 67 65 64 65 63 64 64 64
58 57 57 56 57 57 59 63 62 61 61 62 62 62 61 63 63 64 65 65 65 64
56 56 56 56 56 57 59 60 60 60 60 60 61 61 61 60 61 61 62 62 62 63
55 55 56 56 56 57 58 59 59 59 59 59 59 60 59 59 60 60 60 60 60 60
54 53 53 54 54 56 56 57 57 57 57 58 58 59 58 58 59 58 58 58 58 58
52 51 50 51 54 55 55 55 56 56 56 56 56 57 57 58 56 56 57 56 56 57
51 51 52 53 53 53 54 54 54 55 55 55 55 56 56 55 55 55 55 55 55 55
49 51 51 51 51 52 52 52 53 53 53 54 54 57 54 54 53 53 53 52 53 54
49 49 48 48 49 49 49 50 50 50 50 51 54 53 53 53 52 52 50 49 50 51
47 46 46 47 47 46 46 47 47 46 49 49 50 52 53 51 50 48 48 47 47 50
45 44 45 45 44 44 45 44 45 46 47 47 50 51 51 50 48 47 47 47 47 47
43 42 42 42 41 42 43 43 43 45 45 45 46 49 48 48 46 45 45 47 46 45
41 41 40 40 40 42 41 42 43 42 43 45 43 46 47 46 44 42 43 43 43 45
40 39 40 39 40 40 39 39 39 40 41 41 43 42 45 45 43 41 41 40 40 41

GFSNIL_sfc_temp_012.txt.gz
Temp
54 54 54 53 53 53 54 54 56 57 58 58 59 59 59 57 58 60 60 60 61 62
52 52 52 52 52 52 54 59 57 55 56 57 57 58 57 57 56 56 56 56 57 58
51 52 52 52 51 52 54 55 55 55 56 56 56 56 56 56 56 56 56 56 55 55
50 51 50 50 50 50 51 53 53 54 54 54 55 55 54 54 55 54 54 54 54 54
49 48 48 49 51 52 51 52 52 53 53 53 53 53 53 52 52 52 52 52 52 52
47 47 47 48 50 50 50 50 51 51 50 50 51 51 52 51 52 51 51 51 51 51
45 45 46 47 48 48 49 48 48 49 49 49 50 50 51 51 50 50 51 50 50 50
45 45 45 45 45 46 46 46 47 46 47 48 48 51 49 49 49 47 48 47 48 49
44 44 43 43 44 44 44 44 44 44 44 44 47 49 50 49 47 46 45 44 46 47
42 42 41 42 42 41 41 41 41 42 42 42 44 48 49 49 45 44 44 43 43 44
41 40 40 40 39 39 40 39 40 40 41 41 43 46 47 47 43 42 42 42 42 42
39 38 38 37 37 38 38 38 38 40 39 39 40 45 45 44 41 40 40 41 42 42
38 37 36 36 36 37 37 38 39 38 38 40 39 43 44 43 40 38 38 40 40 42
36 35 36 36 36 36 35 36 35 35 36 37 38 39 42 42 39 38 38 38 37 39

GFSNIL_sfc_temp_015.txt.gz
Temp
51 50 50 49 49 49 49 50 52 53 53 53 54 55 55 53 52 52 51 51 53 54
49 49 48 48 49 49 50 55 53 51 51 53 53 54 53 52 51 52 51 50 50 52
48 48 48 48 47 48 49 50 50 50 51 51 52 52 52 51 52 51 51 51 50 50
47 47 46 46 46 46 47 47 49 49 49 49 49 50 49 50 51 49 49 50 49 49
46 45 44 45 46 47 46 47 47 47 47 47 47 47 47 47 48 47 47 48 48 48
44 43 42 43 45 45 45 44 45 45 44 44 45 45 46 46 46 46 47 47 47 46
42 42 42 41 42 43 43 42 43 43 43 43 44 44 45 45 44 45 45 46 45 45
41 41 40 40 40 41 41 41 42 41 42 42 42 46 44 44 44 42 42 42 43 44
40 39 38 39 39 39 39 39 39 39 39 39 43 45 46 45 43 42 40 39 40 42
39 38 37 38 38 37 36 37 37 37 38 38 39 44 45 45 42 40 38 38 39 39
37 36 36 36 35 35 36 35 35 36 37 37 39 42 43 44 40 39 38 39 39 38
35 35 35 34 34 34 35 34 35 36 36 35 36 41 42 41 38 37 37 39 39 39
34 34 33 32 33 34 34 34 35 34 35 36 35 39 41 40 38 35 36 37 37 40
33 32 32 32 33 33 32 33 32 32 33 34 35 36 40 40 38 37 35 33 35 36

GFSNIL_sfc_temp_018.txt.gz
Temp
48 48 47 46 47 47 47 47 49 49 50 50 50 51 50 49 48 49 47 46 47 49
46 46 45 45 45 45 46 51 49 47 47 48 48 48 48 47 47 47 46 46 45 47
45 45 44 44 43 44 45 45 45 45 45 45 46 46 45 45 46 46 46 47 45 46
43 43 43 42 42 42 42 43 43 43 44 43 43 44 44 43 44 43 44 44 44 45
43 42 40 40 41 42 40 41 41 42 42 42 42 42 42 41 42 42 41 42 43 43
40 39 38 38 39 40 40 40 40 40 40 40 41 41 40 41 42 42 42 41 41 41
38 38 38 38 38 39 39 38 38 39 39 39 40 40 41 41 41 41 42 41 40 39
39 38 37 37 37 37 37 37 38 38 38 38 39 42 40 41 40 40 39 39 39 39
37 37 36 35 36 35 35 36 36 36 36 36 40 42 43 43 39 39 37 36 37 38
36 35 34 35 34 34 33 33 34 34 35 34 35 41 42 42 39 37 36 36 36 37
34 33 33 33 32 31 33 32 32 33 34 34 36 40 41 41 37 36 36 36 36 36
33 32 32 31 30 31 32 32 32 33 33 32 33 38 39 39 36 35 35 36 37 37
32 31 30 29 30 31 31 32 33 32 32 34 32 36 39 39 36 34 34 35 35 38
31 29 30 29 29 30 30 30 29 29 31 31 32 34 38 39 37 35 33 32 33 35

GFSNIL_sfc_temp_021.txt.gz
Temp
53 53 52 52 52 52 51 52 52 52 52 52 52 52 52 51 50 50 49 49 49 49
51 51 50 50 51 50 51 52 51 50 50 50 50 50 49 49 48 49 49 48 48 48
50 49 49 50 48 48 49 49 48 48 48 48 48 48 48 48 48 48 48 48 47 47
48 48 48 47 47 47 47 47 47 46 46 46 46 47 46 46 47 45 46 46 46 45
47 46 46 45 46 46 45 46 45 45 45 45 45 45 44 44 45 44 43 44 44 43
45 44 44 44 44 44 44 44 44 43 43 43 43 43 43 44 44 44 44 44 43 42
44 44 43 43 43 43 43 42 42 42 42 41 42 42 43 43 43 43 43 43 42 41
42 42 42 41 41 41 41 41 41 40 40 40 40 43 42 42 42 41 41 41 41 41
41 40 40 40 40 39 39 39 39 39 38 38 40 40 42 42 41 40 39 39 40 41
39 38 38 38 38 37 37 37 37 38 38 37 38 39 40 41 40 39 39 38 39 39
37 37 37 37 36 36 37 36 36 36 37 36 37 38 39 40 40 39 39 39 39 38
36 36 35 35 35 36 36 36 36 36 36 35 35 37 38 39 39 38 38 39 39 38
35 35 34 35 35 35 35 35 35 34 35 35 34 36 38 39 38 36 36 37 37 38
35 34 35 35 34 34 33 33 32 32 34 34 35 36 38 38 37 36 34 34 35 37

GFSNIL_sfc_temp_024.txt.gz
Temp
62 61 61 60 60 59 58 58 57 57 58 57 57 57 56 55 54 54 53 53 52 52
61 59 58 59 59 57 56 57 56 56 56 56 55 55 54 54 54 54 54 53 53 52
58 58 58 57 55 55 56 55 55 54 54 54 54 54 53 53 53 52 52 52 51 51
56 56 56 55 55 54 55 54 53 53 52 52 52 52 52 51 51 50 50 50 49 48
54 54 54 52 53 53 52 53 52 51 51 51 50 50 50 49 49 48 48 48 48 47
52 52 50 50 51 51 51 51 51 50 49 48 48 48 48 49 48 48 48 47 46 45
50 50 50 50 50 49 50 49 48 48 48 47 47 47 48 46 46 46 47 46 45 45
49 49 49 48 48 48 48 48 47 46 47 47 46 47 44 44 44 44 44 45 45 44
47 47 47 47 47 47 46 47 46 46 45 45 45 43 42 41 42 43 43 42 43 44
46 45 45 46 45 45 45 45 45 45 45 44 44 42 40 40 41 42 42 42 42 42
45 44 45 45 45 45 45 44 44 44 43 42 43 41 40 39 41 42 42 42 42 41
44 43 43 43 43 44 43 43 43 42 41 41 41 40 38 39 41 40 40 41 42 40
43 43 42 43 42 43 43 41 42 41 42 40 40 40 39 39 40 38 39 39 39 40
43 43 43 43 43 42 41 41 40 40 41 40 40 40 39 39 39 38 36 36 38 40

GFSNIL_sfc_temp_027.txt.gz
Temp
63 62 62 61 60 60 59 58 58 58 58 58 57 57 56 54 53 53 52 51 52 52
62 61 59 60 59 58 58 58 57 57 56 56 56 56 54 53 53 53 52 51 51 51
60 60 59 59 56 56 57 57 56 55 55 55 55 54 53 52 52 51 51 51 50 50
58 58 58 56 56 55 56 55 54 54 53 53 52 52 51 51 50 50 49 49 49 48
57 56 55 54 54 55 54 54 53 53 52 51 51 50 49 48 49 48 47 47 47 46
54 53 53 53 53 53 52 52 52 51 50 49 49 48 48 48 47 46 46 46 45 45
52 52 52 52 51 51 51 50 50 49 48 48 48 48 48 46 44 44 45 45 44 45
51 51 51 50 50 50 50 49 49 48 48 48 47 48 45 43 42 41 42 43 44 44
50 49 49 49 48 48 48 48 48 47 47 46 47 46 45 43 40 40 40 41 43 44
48 47 47 48 47 47 46 47 46 46 46 45 45 45 44 42 40 39 41 41 41 42
47 46 47 46 46 46 46 46 45 45 45 43 44 44 43 41 40 40 41 41 41 40
46 45 45 45 45 45 45 44 44 44 43 42 43 43 42 41 40 39 39 40 40 39
46 45 44 44 44 44 44 43 43 43 43 43 41 43 42 41 39 37 37 38 38 40
46 45 45 44 44 43 43 42 42 41 42 42 42 42 42 41 39 37 35 33 35 38

GFSNIL_sfc_temp_030.txt.gz
Temp
53 51 51 50 49 48 48 48 49 48 48 48 48 48 47 44 44 44 42 41 41 42
51 51 49 49 49 48 48 52 48 47 47 47 47 47 45 43 43 42 42 41 41 42
50 50 49 48 47 47 47 47 46 46 46 46 46 45 44 42 42 43 41 44 42 43
49 49 48 47 46 46 46 46 46 46 45 44 44 43 42 41 43 42 40 42 42 42
48 47 46 45 46 46 45 45 45 44 44 43 43 42 41 40 41 39 39 40 40 40
46 45 44 44 45 45 44 43 43 43 42 42 42 41 40 42 39 39 39 39 38 38
44 44 43 44 44 44 43 42 41 42 42 41 42 42 42 40 39 38 38 38 38 38
44 44 44 43 43 43 42 42 41 41 41 40 42 45 42 41 38 36 36 37 38 39
44 43 42 42 41 41 40 40 40 39 39 38 44 46 46 44 38 36 35 35 37 38
43 43 41 41 40 39 38 38 37 37 37 36 36 45 45 45 39 36 35 35 36 37
43 41 40 38 37 37 37 36 35 35 36 35 39 44 44 44 38 36 35 36 36 35
40 38 38 36 35 36 35 34 34 36 35 34 36 43 43 42 37 36 35 36 36 36
39 38 36 35 35 35 34 36 38 37 35 38 36 41 43 42 38 35 34 35 34 37
38 37 36 35 34 34 33 34 32 34 34 33 35 37 41 41 37 35 34 31 32 34

GFSNIL_sfc_temp_033.txt.gz
Temp
49 47 47 47 46 45 45 45 45 45 44 44 45 44 43 41 40 41 38 38 38 38
47 47 46 46 45 44 45 50 44 44 43 44 43 43 41 39 39 39 38 37 37 37
46 46 45 45 44 44 44 44 43 43 43 42 42 41 40 38 39 38 37 40 36 38
45 45 45 44 43 43 43 43 43 42 42 41 40 40 38 38 39 37 36 36 38 37
45 44 43 42 43 43 42 42 41 41 41 40 40 39 38 37 37 35 34 35 35 36
43 42 41 41 42 42 41 41 40 40 39 40 40 38 38 37 36 35 35 34 34 35
41 41 41 41 41 41 41 40 39 40 40 39 38 39 39 37 36 34 35 35 35 35
41 42 41 41 40 40 40 40 39 39 38 37 38 43 41 40 37 33 33 34 35 36
42 42 40 40 40 39 38 38 37 36 35 35 41 44 45 44 38 35 33 33 35 35
41 41 40 39 38 37 35 34 33 34 34 33 33 44 45 44 39 35 32 33 34 35
41 40 38 37 35 33 33 32 32 32 33 32 36 43 43 43 38 34 32 33 33 33
39 38 36 34 33 33 32 31 31 33 32 31 32 41 42 41 36 35 34 35 34 35
38 36 34 33 32 32 31 33 33 33 32 35 31 38 40 39 35 33 33 33 32 36
36 35 34 33 31 31 31 30 29 29 29 29 31 32 39 39 36 33 32 30 31 33

GFSNIL_sfc_temp_036.txt.gz
Temp
47 46 45 45 44 44 43 43 43 42 42 42 42 41 40 38 37 38 36 35 34 35
45 45 44 44 43 43 43 48 42 41 41 40 40 40 39 37 37 36 35 34 34 34
44 44 43 43 42 42 42 42 41 40 40 39 39 39 38 36 37 36 35 37 34 33
43 43 43 42 41 41 41 40 40 40 39 39 38 38 36 36 37 35 34 34 33 33
42 42 41 41 41 41 39 39 39 39 38 38 38 37 36 35 34 34 33 33 32 32
41 40 40 40 40 40 39 38 38 38 38 37 38 36 35 35 35 34 33 33 32 32
40 39 39 39 39 39 38 38 38 37 37 37 36 36 36 36 34 33 34 33 33 32
40 40 39 39 39 38 38 37 37 36 35 35 36 41 39 38 35 33 32 32 33 34
40 40 39 38 37 37 36 35 35 33 33 32 39 42 44 43 37 35 32 31 33 34
40 39 38 38 36 35 34 32 31 31 32 31 31 42 43 43 38 32 31 31 32 33
39 38 37 35 34 32 32 31 30 31 31 29 33 41 41 41 34 33 32 31 31 31
38 36 35 34 32 31 31 29 30 30 29 28 29 39 40 39 33 33 31 33 32 33
36 35 34 33 31 31 30 30 30 30 29 33 29 36 39 38 34 32 32 32 32 36
35 34 33 31 30 30 28 29 27 28 27 28 29 29 38 39 36 33 31 31 32 32

GFSNIL_sfc_temp_039.txt.gz
Temp
46 46 44 43 42 42 41 41 41 41 40 39 40 39 38 36 36 36 34 33 32 33
44 44 43 42 42 41 41 45 40 39 39 38 38 38 37 35 35 34 33 32 33 32
43 42 42 41 41 41 40 40 39 38 38 38 37 37 36 34 35 34 33 35 32 32
41 41 41 40 40 40 39 39 38 38 37 37 36 36 34 34 35 33 33 33 32 32
41 40 39 39 39 39 38 38 37 37 36 36 36 35 33 32 33 32 32 32 31 31
39 39 38 38 39 38 38 36 36 36 35 35 35 34 33 33 33 32 32 32 31 31
38 38 38 38 38 37 36 36 35 35 35 34 34 34 34 34 33 32 33 32 31 31
38 38 38 38 37 36 36 35 34 34 33 33 34 39 36 35 33 31 30 31 31 33
38 38 38 36 36 35 34 33 32 32 31 31 37 41 43 41 33 31 30 29 31 31
38 39 37 36 35 33 32 30 30 31 30 29 29 40 42 42 34 30 29 29 31 32
40 38 36 34 32 31 31 30 30 29 29 28 31 40 41 41 32 30 29 30 30 29
39 36 33 32 30 31 30 29 29 29 28 27 27 38 39 38 32 32 29 30 32 32
35 33 32 31 30 30 29 30 30 29 28 30 27 35 39 38 34 31 32 31 31 36
33 32 32 30 30 28 27 28 25 26 25 26 28 29 38 39 35 33 33 31 31 32

GFSNIL_sfc_temp_042.txt.gz
Temp
47 45 43 42 42 40 40 39 39 39 39 38 38 37 36 35 35 35 33 32 31 32
44 43 42 40 41 40 40 42 39 39 38 37 37 36 35 34 33 32 32 32 31 31
42 42 41 41 39 39 39 39 38 38 37 36 36 35 34 33 33 33 32 34 31 30
41 40 40 39 38 38 38 38 37 37 36 35 35 34 33 32 34 32 31 31 31 31
40 39 39 38 37 38 37 37 37 36 35 34 34 33 32 32 32 31 30 31 30 30
38 38 36 36 37 37 36 36 36 35 34 33 33 33 32 32 32 31 31 30 29 29
37 36 36 36 36 36 36 36 34 33 33 33 32 33 33 33 32 31 31 30 30 30
36 36 36 36 35 35 35 34 34 32 32 31 33 38 35 34 32 30 29 29 30 31
37 36 35 35 35 35 34 33 31 31 30 29 36 40 42 41 32 31 30 28 30 29
36 36 36 38 36 34 32 30 29 29 29 28 28 40 42 42 33 30 28 28 29 31
36 36 37 35 33 31 29 28 28 28 28 27 30 39 40 40 31 29 28 28 28 28
37 37 35 33 30 29 28 27 27 28 27 25 26 37 38 38 30 30 29 30 29 29
38 36 32 29 29 28 28 29 30 29 27 30 26 34 38 38 33 30 31 31 31 35
35 31 30 29 28 27 26 27 25 26 25 25 27 27 37 38 34 31 32 31 31 31

GFSNIL_sfc_temp_045.txt.gz
Temp
53 51 49 48 49 49 48 47 47 47 47 46 46 46 45 44 44 43 43 42 42 42
50 49 47 48 49 48 47 47 46 46 46 45 45 45 44 44 43 43 43 42 42 41
47 49 48 48 47 47 47 46 46 45 45 44 44 43 43 43 42 42 42 43 41 41
47 47 47 47 46 46 46 46 45 44 44 43 43 42 42 42 42 40 40 41 40 39
46 45 45 45 45 46 44 44 44 43 43 42 41 41 41 40 40 39 39 39 38 38
44 44 44 44 44 44 43 43 42 42 41 40 40 40 41 40 40 39 39 38 37 37
43 43 43 43 43 42 42 41 41 40 39 39 39 39 40 40 40 39 39 38 38 37
41 42 42 41 41 41 41 40 40 39 38 38 39 41 42 42 40 39 38 38 38 38
41 41 40 40 40 40 39 39 38 37 37 37 39 40 42 42 41 39 37 36 37 37
40 40 39 40 39 38 38 38 37 36 36 35 36 39 41 41 40 38 37 37 36 36
40 39 39 39 38 37 37 36 36 35 35 34 35 38 40 40 39 37 37 37 36 35
40 39 39 37 36 36 36 35 35 35 34 33 34 37 38 39 38 37 36 36 37 36
40 39 36 36 35 34 35 35 35 34 34 33 33 35 38 38 37 35 36 37 37 37
38 36 35 35 34 33 33 33 32 33 33 33 34 35 37 38 37 36 35 35 35 36

GFSNIL_sfc_temp_048.txt.gz
Temp
56 54 51 51 50 52 55 56 56 56 55 54 54 54 53 52 52 50 51 48 49 49
57 53 50 50 51 51 53 55 55 54 54 54 53 53 51 52 52 52 51 50 49 48
55 52 53 52 51 55 55 54 54 54 53 53 52 51 52 52 50 50 50 49 48 47
55 52 53 53 56 55 55 55 54 53 53 52 51 51 51 50 49 47 47 47 46 45
51 53 54 55 55 56 54 54 53 52 51 50 49 50 49 48 48 46 46 46 45 44
51 54 54 54 54 54 53 52 51 51 49 48 47 48 48 47 47 47 46 45 44 43
53 53 53 53 52 52 52 50 49 49 47 47 47 46 46 46 47 46 46 45 43 43
51 51 51 50 50 50 50 49 48 47 46 46 46 47 45 46 46 45 45 44 44 43
49 49 49 48 48 48 47 47 46 45 45 45 45 40 42 43 45 45 43 42 43 43
48 47 47 47 47 46 46 46 45 44 44 44 44 40 41 41 43 43 42 42 41 41
47 46 46 47 45 43 45 45 45 44 43 42 43 38 40 40 43 43 42 42 41 40
47 46 46 44 41 43 45 44 44 43 42 41 42 38 38 40 42 41 41 42 42 41
47 46 43 41 43 43 44 43 43 42 42 39 41 39 38 39 41 40 40 41 42 41
45 41 41 43 44 43 42 42 42 41 42 41 40 40 38 38 39 39 38 38 39 40

GFSNIL_sfc_temp_051.txt.gz
Temp
63 60 55 53 51 51 52 50 56 56 57 56 56 55 54 52 51 50 50 50 49 49
61 56 53 51 53 53 54 55 56 56 56 55 55 55 52 52 52 51 51 50 50 48
57 54 53 52 51 52 53 54 55 55 54 54 53 53 53 52 51 50 51 50 48 48
55 53 53 52 53 53 55 54 55 55 54 54 53 53 52 51 50 49 49 49 47 46
53 53 53 54 54 56 54 56 55 55 54 53 52 51 51 50 50 48 47 47 46 45
53 53 54 52 54 54 55 54 54 53 52 51 49 49 50 49 49 48 47 47 45 44
53 52 52 53 54 54 53 52 51 51 50 49 48 48 48 48 47 47 47 47 45 44
51 52 51 52 52 52 52 51 50 49 48 48 47 48 44 45 46 45 45 45 45 45
50 50 50 50 50 49 49 48 48 47 47 46 47 41 42 43 43 44 44 43 43 44
50 49 49 49 48 47 47 47 46 46 46 45 45 41 41 42 42 42 43 42 42 41
49 48 48 48 46 45 46 46 46 45 45 44 45 40 40 40 41 42 42 42 42 41
48 47 47 45 44 45 45 45 45 44 44 43 44 40 39 39 40 40 40 42 42 41
48 47 44 43 43 45 45 43 43 43 44 43 41 42 40 39 39 38 39 40 40 42
46 44 43 44 45 45 43 43 43 42 44 43 43 41 40 39 37 37 36 36 37 39

GFSNIL_sfc_temp_054.txt.gz
Temp
53 51 50 50 50 50 50 51 53 54 53 52 51 47 46 44 43 43 41 42 42 41
54 52 50 51 52 52 52 53 53 53 51 50 50 47 45 43 44 44 43 41 40 40
52 50 50 51 51 51 53 54 53 52 50 49 46 46 45 44 44 43 41 42 40 39
48 49 52 52 52 53 53 52 50 51 50 47 47 47 45 44 44 42 41 41 40 39
49 51 51 51 52 53 52 53 52 51 49 47 46 45 44 43 43 41 40 40 39 38
51 51 51 51 52 53 52 50 50 48 46 45 45 44 43 43 41 41 40 39 38 37
50 51 52 52 52 51 50 49 46 46 45 44 44 44 43 42 40 39 40 40 39 38
51 51 51 50 49 49 48 45 45 43 42 43 43 44 39 39 37 36 36 37 39 38
49 49 48 48 46 46 43 42 42 41 42 40 46 43 43 41 35 36 35 34 36 37
47 46 46 46 45 42 41 41 40 40 41 41 38 42 42 42 36 34 33 34 34 36
46 45 45 43 41 40 40 40 40 41 40 39 40 41 41 41 34 33 34 34 34 33
45 44 43 41 39 39 40 41 40 40 38 36 35 41 41 38 32 32 31 35 34 35
45 43 40 38 40 41 40 39 39 38 37 40 34 42 41 39 33 30 30 32 33 39
41 41 41 41 41 40 38 37 36 35 35 35 36 34 42 41 34 31 31 29 31 33

GFSNIL_sfc_temp_057.txt.gz
Temp
52 50 49 49 49 51 51 51 51 53 52 51 51 50 47 45 43 41 40 41 40 40
50 49 48 48 49 50 50 51 53 51 51 50 50 49 46 42 44 41 41 40 39 38
49 48 48 49 48 51 53 53 51 51 50 50 49 48 46 45 44 44 41 41 39 38
47 48 48 49 51 53 53 52 51 50 50 48 48 47 45 44 44 42 40 39 39 39
47 49 49 50 52 53 52 52 51 50 49 48 47 46 45 44 42 41 40 39 38 37
49 50 48 51 52 52 51 51 50 49 47 47 45 44 44 43 42 40 40 39 38 36
49 48 50 51 51 50 50 49 48 47 46 45 44 44 41 41 39 39 39 38 37 36
49 50 50 48 48 48 48 47 46 44 44 43 42 42 38 39 38 37 35 35 36 36
48 48 47 47 46 45 45 44 43 42 42 39 43 44 44 41 37 35 33 33 34 34
46 43 42 43 43 41 42 42 40 40 38 38 39 43 43 42 35 33 32 32 32 33
40 39 40 42 42 40 40 38 37 38 39 39 40 42 42 41 33 32 32 32 31 30
38 39 40 38 37 38 39 38 39 39 38 36 35 42 41 38 32 32 30 32 32 33
39 39 39 41 40 39 40 39 39 38 36 39 34 42 42 39 32 30 30 30 30 37
39 40 41 40 40 39 38 37 35 34 33 33 34 34 43 43 34 31 28 28 30 31

GFSNIL_sfc_temp_060.txt.gz
Temp
55 55 53 52 49 49 48 48 51 52 52 52 51 50 48 46 45 45 41 42 39 38
52 50 49 48 49 48 48 50 51 52 51 50 50 49 47 45 45 44 43 39 41 37
48 48 48 49 48 48 50 52 51 50 50 49 49 48 47 46 45 44 42 40 38 37
45 46 47 47 49 50 51 51 51 50 50 48 47 48 46 43 44 42 39 38 38 37
45 46 46 47 48 50 50 52 51 50 49 48 47 47 46 45 44 42 39 39 37 37
45 45 45 47 48 50 51 50 50 49 47 47 46 45 44 44 42 42 40 38 36 36
45 47 49 50 50 50 50 48 47 47 46 45 44 44 43 42 40 39 37 36 36 35
48 48 49 48 48 48 47 46 45 44 44 43 43 43 40 39 38 36 34 35 35 35
47 46 45 45 44 43 42 42 41 39 39 40 43 45 44 39 35 36 34 32 31 33
44 42 42 42 41 39 38 38 37 37 39 39 41 44 43 41 35 32 31 30 30 32
39 38 38 38 36 37 36 36 37 39 39 38 41 43 43 40 32 30 30 30 30 29
37 34 34 33 33 34 35 37 38 39 38 38 37 42 42 36 30 32 31 32 31 31
33 33 33 36 36 37 37 38 39 38 37 39 34 42 43 38 32 31 31 31 30 35
33 34 37 37 38 38 38 37 36 34 33 31 33 33 42 42 33 32 30 29 30 31

GFSNIL_sfc_temp_063.txt.gz
Temp
57 56 55 54 54 54 52 50 49 50 51 52 51 50 49 47 45 45 43 44 43 41
53 52 51 50 50 50 49 49 49 50 49 50 50 49 47 46 46 45 44 43 42 40
49 48 47 47 47 47 48 49 49 49 49 49 49 48 47 46 46 45 43 42 41 40
44 44 45 46 47 47 48 48 48 50 50 49 48 47 46 45 45 43 42 41 41 39
43 44 44 44 46 48 47 49 50 50 49 48 47 47 46 45 44 42 41 40 40 38
42 43 46 48 50 50 51 50 50 48 47 46 45 45 45 44 42 40 39 39 39 38
42 46 47 48 49 49 49 48 47 46 45 44 44 43 42 40 38 37 39 38 37 36
46 48 48 47 48 46 47 46 45 44 43 42 42 42 39 38 37 37 36 36 35 35
46 45 44 43 42 43 42 41 40 39 39 38 40 41 39 37 37 36 34 33 33 32
42 40 40 40 40 38 37 37 36 35 37 37 39 41 41 39 35 33 32 31 30 32
39 38 37 36 35 35 35 35 34 34 33 33 36 41 42 39 34 32 30 30 29 28
37 35 35 33 33 33 33 32 32 33 33 35 38 43 42 36 32 33 31 31 30 31
34 34 33 33 32 32 32 32 33 34 36 39 34 42 43 38 32 30 30 30 30 35
33 33 33 33 32 33 35 36 34 32 31 30 33 32 42 41 32 31 30 30 30 31

GFSNIL_sfc_temp_066.txt.gz
Temp
57 57 57 56 57 55 54 54 51 52 51 50 50 49 49 49 47 46 44 45 44 42
53 54 54 52 52 51 50 49 51 51 50 50 51 50 48 47 46 46 45 44 43 42
51 51 49 47 47 47 47 49 48 48 49 49 50 49 48 46 46 45 43 43 42 41
46 46 45 45 44 45 46 47 47 47 47 49 49 48 46 45 45 44 43 42 41 40
45 46 45 46 48 48 48 48 49 49 49 48 47 47 45 44 43 41 40 40 40 39
45 46 46 47 48 49 49 49 50 49 47 46 45 44 43 42 41 39 39 38 37 36
45 46 48 48 49 48 48 47 46 46 45 44 44 43 41 40 38 37 37 36 35 35
46 47 47 46 46 46 45 45 45 43 42 42 41 41 37 37 35 35 34 34 34 35
44 43 43 43 42 42 41 41 40 40 40 39 40 42 40 36 34 32 32 31 32 34
41 39 39 40 39 38 37 38 37 37 38 37 38 40 39 36 33 31 30 33 33 33
38 36 36 36 35 36 37 36 35 35 34 34 37 38 37 35 30 31 32 31 30 29
37 35 35 34 33 34 34 33 32 33 32 33 34 38 38 36 33 34 32 32 31 30
35 34 33 33 33 33 33 32 33 32 33 35 33 38 41 37 33 30 31 31 30 35
34 34 34 33 33 32 32 32 31 31 32 33 34 36 42 39 32 31 30 29 30 30

GFSNIL_sfc_temp_069.txt.gz
Temp
59 63 62 63 62 60 59 59 61 59 58 58 58 57 56 54 54 52 49 48 48 45
56 57 61 61 61 62 60 57 56 57 56 55 56 55 54 52 50 49 47 45 45 44
56 56 57 57 57 56 54 55 54 54 54 53 53 52 52 49 49 46 45 44 43 42
54 53 52 52 51 51 51 51 51 52 52 51 50 50 48 47 47 45 43 43 42 40
49 50 50 50 50 51 50 51 50 50 50 49 48 48 47 46 45 43 41 39 39 39
48 48 48 49 50 50 50 49 50 49 47 46 46 45 44 43 41 40 39 38 37 36
47 48 48 49 49 49 48 47 46 46 45 44 44 43 42 40 38 38 38 37 36 35
46 46 46 46 45 45 44 44 43 42 42 42 42 42 39 38 36 35 33 33 33 33
43 43 43 43 43 42 42 41 41 41 40 40 41 42 41 37 34 34 32 31 31 32
40 39 40 41 40 39 39 40 39 40 40 38 39 41 40 38 33 32 32 32 35 35
38 37 38 38 36 36 36 36 36 36 37 36 38 40 39 36 32 31 35 34 33 34
37 36 36 35 33 34 34 33 33 33 33 33 36 39 38 35 36 35 34 34 34 36
35 34 33 34 33 33 33 33 34 33 35 37 36 38 37 35 37 33 35 36 35 36
34 34 34 33 33 33 32 32 32 32 33 34 36 39 39 38 36 35 34 34 34 35

GFSNIL_sfc_temp_072.txt.gz
Temp
68 69 68 68 68 67 66 65 66 65 64 65 65 65 65 64 62 61 60 59 54 49
67 66 67 68 65 64 66 66 68 64 61 61 60 60 59 57 58 56 56 52 48 45
63 65 65 66 66 62 61 60 59 59 58 56 56 56 55 54 52 48 45 44 45 43
60 62 62 61 61 59 58 57 56 56 55 54 53 53 50 48 47 44 41 40 39 39
55 55 55 55 57 56 56 56 55 55 53 52 51 50 48 46 45 43 41 41 39 37
52 53 52 53 53 54 55 55 54 52 50 49 48 46 46 45 43 42 42 41 39 37
49 50 50 51 51 51 50 49 47 47 47 46 45 43 43 43 42 41 39 39 38 36
46 47 46 46 46 46 45 45 45 44 43 43 42 42 41 40 39 36 36 34 34 34
43 43 43 43 43 44 43 43 42 42 41 40 41 42 41 38 36 35 34 32 33 34
40 40 41 43 43 42 41 41 40 40 39 38 39 41 40 39 33 33 33 34 35 38
39 38 39 39 38 38 38 37 37 36 37 36 38 39 38 36 33 35 37 37 37 36
39 37 37 35 34 35 35 34 33 33 33 34 35 37 37 40 40 38 36 36 36 38
36 35 34 35 33 33 34 34 35 34 36 38 39 39 38 37 36 38 39 39 39 37
36 35 35 35 35 35 34 36 36 35 36 38 39 40 39 39 40 39 38 38 38 38

GFSNIL_sfc_temp_075.txt.gz
Temp
70 70 72 73 74 73 70 69 67 65 65 65 65 65 64 62 62 62 61 61 60 57
67 68 67 69 71 69 67 63 65 64 62 62 62 61 60 59 58 58 57 50 47 45
64 65 66 67 66 67 64 62 60 60 59 58 58 57 56 54 51 48 45 44 42 41
61 62 63 63 64 63 61 59 58 57 56 55 54 54 51 50 48 45 43 43 41 39
56 57 57 58 60 60 59 58 57 56 55 54 52 50 48 46 44 42 40 40 39 38
53 54 54 54 55 56 57 56 56 55 53 51 49 48 47 45 43 41 40 40 39 38
49 49 49 49 49 49 50 49 48 48 47 46 45 44 44 43 41 41 40 40 40 39
46 46 46 45 45 45 45 45 44 43 43 43 42 42 40 38 37 36 35 34 35 35
44 43 43 44 43 43 42 42 42 41 41 41 42 43 42 38 36 35 34 32 32 35
42 43 43 44 43 42 41 41 39 39 39 38 38 40 39 37 32 32 32 32 33 36
40 39 39 39 38 38 38 37 37 36 37 37 39 40 39 37 33 35 36 37 37 37
39 38 38 36 35 36 35 34 33 34 34 34 36 40 40 40 40 37 35 35 35 39
37 36 35 35 34 34 35 35 36 35 38 40 38 40 40 39 37 36 37 39 39 37
36 36 36 36 36 36 36 36 36 37 39 40 41 40 40 41 40 38 37 37 37 37

GFSNIL_sfc_temp_078.txt.gz
Temp
57 57 58 59 60 61 62 62 65 63 63 63 63 62 62 61 61 60 58 58 57 52
56 56 56 57 58 58 60 61 61 62 61 61 61 61 60 59 58 58 56 50 47 45
54 55 55 56 56 56 55 57 58 58 58 57 57 56 56 53 50 48 45 45 44 42
50 51 52 52 53 53 53 54 55 55 54 54 53 52 51 48 47 44 43 42 41 40
53 52 50 50 52 54 54 55 55 54 52 51 49 49 47 45 44 42 40 39 39 38
49 49 49 49 50 51 51 51 50 50 48 46 46 45 44 43 41 40 40 39 38 38
45 46 46 46 46 46 46 45 45 45 44 44 44 43 42 41 40 39 39 39 39 38
44 44 44 43 43 44 44 43 43 42 42 42 42 41 40 39 37 36 34 35 35 36
43 43 42 42 42 42 42 42 42 41 41 41 42 43 42 37 35 34 33 32 32 34
42 42 42 42 41 40 39 39 38 38 38 38 41 43 41 38 32 32 32 32 32 34
40 39 39 38 37 37 37 36 36 36 37 38 40 41 40 38 32 33 32 32 33 34
39 37 37 35 34 35 34 34 33 33 32 32 37 42 41 37 32 30 30 32 32 34
37 35 34 35 34 34 35 35 36 35 33 38 32 41 41 36 32 29 30 32 33 39
36 35 35 35 36 35 35 35 32 31 33 33 34 35 42 42 34 31 29 30 30 31

GFSNIL_sfc_temp_081.txt.gz
Temp
53 53 53 54 55 57 59 60 63 62 63 63 63 62 62 61 61 60 59 58 57 54
51 51 52 52 52 53 56 59 60 61 61 61 61 61 60 59 58 58 57 55 53 49
48 49 50 50 51 52 52 54 54 55 57 56 56 56 56 53 51 49 46 45 44 42
47 48 49 49 50 50 51 51 51 51 51 52 52 52 50 48 47 44 43 42 41 40
48 47 46 46 48 50 49 50 49 49 48 49 48 47 46 44 44 42 40 40 40 39
47 47 47 47 48 49 49 49 49 48 46 46 45 44 44 43 42 41 40 40 39 38
44 45 45 45 45 46 46 45 44 45 44 43 43 43 42 41 40 39 39 39 38 38
44 44 44 43 43 43 43 43 43 42 42 42 42 42 39 39 37 36 35 36 36 37
43 42 42 42 42 41 41 41 42 41 41 41 41 43 41 36 34 33 33 33 33 35
42 41 41 41 40 39 39 39 38 39 40 40 41 43 41 38 32 31 31 31 33 34
40 39 39 38 37 36 37 36 37 37 38 39 41 42 41 38 32 32 30 31 31 30
39 37 36 35 34 35 35 34 33 33 31 31 35 42 40 35 30 30 29 31 31 31
37 35 34 34 34 34 34 34 33 31 32 38 33 42 41 34 30 28 29 29 31 39
36 35 35 35 35 35 35 32 30 29 30 30 32 36 42 40 31 30 28 29 29 30

GFSNIL_sfc_temp_084.txt.gz
Temp
52 52 53 54 54 55 57 58 61 60 61 61 63 63 62 61 60 60 59 59 58 56
48 49 50 51 51 52 55 57 58 59 60 60 62 62 61 59 58 58 54 53 52 49
47 48 48 49 50 51 52 53 54 55 55 55 56 56 56 53 51 49 46 45 44 43
45 46 46 47 47 48 49 50 50 49 49 50 50 51 49 48 47 44 43 43 42 41
45 44 43 43 45 46 46 46 46 46 45 44 44 44 45 45 44 43 41 41 40 40
43 44 45 45 46 47 47 45 45 44 44 44 45 44 44 43 42 41 41 40 39 39
41 42 44 45 45 45 46 45 44 44 44 43 43 43 42 41 40 39 39 39 39 38
43 43 43 43 43 43 43 43 43 42 42 42 42 42 39 39 38 36 36 36 37 37
42 42 42 42 41 41 41 42 42 41 41 40 41 43 41 35 34 35 34 33 33 36
42 41 40 41 40 39 39 39 39 40 40 40 40 43 42 38 30 32 32 32 32 33
40 39 38 38 37 37 37 37 37 38 39 39 41 43 41 38 30 29 30 30 29 29
39 37 36 35 35 35 35 34 34 34 34 33 35 41 40 33 29 29 28 30 29 30
37 36 35 35 33 34 32 32 32 31 31 38 33 41 40 33 30 28 29 29 31 39
36 35 35 35 35 34 30 30 29 28 29 30 32 36 41 39 31 30 27 28 29 30

GFSNIL_sfc_temp_087.txt.gz
Temp
51 51 52 53 53 54 55 57 59 60 60 61 61 61 61 60 60 60 59 58 57 57
48 49 50 50 50 51 53 56 57 58 58 59 60 60 59 58 58 56 52 50 51 50
46 47 49 50 50 50 51 52 53 54 56 56 56 56 55 52 51 49 46 46 46 44
45 45 45 46 47 48 49 49 49 49 49 50 50 51 49 48 47 45 43 44 43 42
44 43 42 43 44 46 45 45 45 44 44 44 44 45 47 45 43 41 42 42 41 41
42 42 41 42 43 45 44 43 43 43 42 42 42 41 41 41 40 42 41 41 40 40
40 40 40 44 45 45 46 45 44 44 43 43 43 42 42 41 40 40 39 39 39 39
41 41 41 43 43 43 43 43 43 43 42 43 42 42 40 39 38 37 36 36 36 36
40 41 41 42 41 42 42 42 42 41 41 41 42 43 42 38 36 36 35 34 34 36
40 40 40 41 40 40 39 40 39 40 40 38 39 43 41 37 33 33 33 33 33 33
40 39 39 38 37 37 38 38 38 38 39 40 41 42 41 37 30 30 29 29 29 28
39 37 37 36 35 36 36 35 34 35 35 36 38 41 39 34 30 30 28 30 29 29
38 36 35 35 34 34 35 34 35 33 32 38 33 41 40 33 31 28 29 29 30 38
37 36 36 35 35 34 33 33 30 29 30 31 33 36 40 38 31 30 27 29 29 30

GFSNIL_sfc_temp_090.txt.gz
Temp
53 54 54 54 54 55 56 57 58 59 60 61 61 60 59 58 58 57 57 59 58 57
48 49 49 50 50 51 52 55 55 56 57 58 59 59 59 59 58 56 54 52 52 51
46 46 47 48 49 49 50 51 52 56 56 56 57 58 56 53 52 49 47 48 47 46
44 44 44 45 46 47 47 48 48 50 51 51 52 52 51 49 48 46 44 44 44 43
43 43 42 43 43 44 44 44 44 44 44 44 45 48 49 47 46 45 43 42 43 41
42 42 42 42 43 43 43 43 42 43 42 42 42 41 41 42 41 41 40 40 39 40
40 40 40 41 42 42 43 42 43 44 43 42 42 41 41 40 39 39 39 40 40 39
39 40 40 40 41 43 44 43 43 43 42 43 43 43 40 40 39 38 37 37 37 37
39 40 39 40 40 42 42 42 42 41 41 41 42 43 43 39 37 37 36 34 34 37
38 39 38 40 40 40 39 40 39 39 40 40 41 43 42 39 34 33 33 33 33 34
38 37 39 39 38 38 38 38 38 39 39 39 41 41 39 37 33 32 31 30 30 29
39 37 37 36 36 36 36 35 35 36 36 37 39 41 39 34 30 30 29 30 29 30
38 37 36 36 34 34 35 35 35 34 35 39 34 41 40 34 32 29 30 30 31 38
37 36 36 36 35 35 34 34 33 32 32 31 33 36 40 39 32 30 28 29 29 31

GFSNIL_sfc_temp_093.txt.gz
Temp
60 61 62 61 62 62 62 62 63 63 64 65 65 65 64 63 62 62 61 62 62 62
56 57 57 57 57 58 58 59 60 60 61 62 63 64 63 62 62 62 62 61 59 57
52 53 54 55 55 55 56 56 57 59 60 60 60 61 61 58 57 55 52 52 52 51
50 50 51 52 52 53 53 53 54 55 56 56 56 56 54 52 51 50 49 48 49 48
49 49 49 49 50 51 50 50 50 50 51 50 51 53 52 51 49 47 49 46 46 44
47 48 48 48 48 49 49 48 49 49 48 47 47 48 49 48 47 47 46 46 45 45
46 46 47 47 47 48 48 48 48 47 47 46 46 46 45 45 44 44 44 44 44 44
44 45 45 45 45 46 46 46 46 46 46 46 45 45 44 43 43 42 41 40 40 40
43 43 43 44 44 44 44 45 44 44 44 44 44 44 43 42 40 39 38 36 37 41
42 42 42 42 43 43 42 43 42 42 43 42 43 44 43 40 35 34 34 34 36 37
41 41 41 41 41 40 40 40 40 40 41 41 42 43 42 40 37 37 36 37 37 37
41 39 40 39 37 38 38 37 37 38 38 38 39 41 40 37 36 35 35 35 36 37
40 40 38 38 36 35 37 36 37 36 38 40 39 41 39 37 36 34 34 35 38 39
40 39 39 37 37 36 36 35 35 34 35 36 39 40 40 39 37 36 34 35 35 37

GFSNIL_sfc_temp_096.txt.gz
Temp
69 68 68 69 66 67 66 66 67 68 69 69 68 68 68 67 67 67 66 66 67 67
62 63 63 63 65 65 65 65 67 66 67 68 68 67 66 65 64 65 65 66 66 66
61 61 62 63 63 63 63 64 65 65 66 67 67 67 65 63 63 63 60 59 61 57
61 61 61 61 61 61 61 62 61 63 63 63 63 63 62 61 57 56 53 52 52 52
60 60 60 59 59 59 59 59 59 59 59 59 59 59 58 55 53 50 50 49 52 50
59 59 59 58 58 58 59 58 58 58 57 56 55 55 55 54 50 50 50 51 48 49
56 56 56 57 57 57 57 57 56 56 56 55 55 55 54 51 49 49 48 49 51 49
54 54 55 54 54 54 54 54 54 54 53 53 53 52 51 51 51 50 47 47 46 46
52 52 52 53 53 53 52 52 52 51 51 50 49 45 46 46 45 44 43 40 42 44
51 50 50 51 51 51 51 51 49 48 47 46 46 45 44 42 36 35 35 37 39 41
50 49 49 49 48 48 47 45 45 44 44 43 44 44 43 41 39 39 40 40 41 42
49 48 47 47 44 44 43 40 39 41 41 40 41 43 42 40 40 39 40 41 42 43
47 44 44 45 40 39 41 39 39 39 41 41 40 41 41 42 42 40 40 41 41 41
44 43 44 44 43 41 39 38 38 37 38 39 41 40 40 41 42 41 40 39 40 41

GFSNIL_sfc_temp_099.txt.gz
Temp
70 67 66 67 65 65 65 66 66 67 66 67 66 67 67 65 65 64 64 65 65 66
68 67 65 64 65 65 65 63 65 67 68 68 68 67 65 64 63 64 65 65 66 65
63 63 64 64 63 61 62 64 64 66 68 68 68 68 67 64 63 62 62 61 61 59
63 63 62 62 62 62 61 62 63 64 65 65 65 66 64 63 61 60 58 54 57 54
63 63 63 62 61 61 60 61 61 60 60 61 61 60 60 59 55 53 52 51 52 49
62 63 62 61 61 61 61 60 59 59 59 58 57 57 58 56 53 52 51 50 49 49
60 61 61 60 60 59 60 59 59 59 58 57 57 57 56 53 52 50 49 48 49 49
57 58 58 57 57 58 58 57 57 56 56 56 55 54 54 54 51 48 47 46 46 46
56 56 55 55 55 56 55 55 54 53 53 53 51 46 47 49 48 45 44 41 42 44
55 54 54 54 54 53 53 53 52 51 50 49 48 46 45 43 37 35 35 37 39 42
54 53 52 52 51 51 50 49 48 47 46 45 45 45 43 42 40 40 40 40 40 41
53 51 51 50 48 48 46 44 42 42 42 42 42 44 43 41 39 38 38 39 41 42
51 50 48 49 44 41 43 41 42 40 41 42 41 43 42 40 38 37 38 40 40 44
48 47 47 47 44 43 42 41 40 39 40 40 40 41 42 43 40 40 39 38 38 39

GFSNIL_sfc_temp_102.txt.gz
Temp
62 62 61 61 61 61 62 63 63 63 63 63 64 64 64 63 63 63 62 62 62 62
62 62 62 62 62 61 61 62 63 63 63 63 64 65 64 62 62 62 62 62 62 62
59 60 59 59 58 58 58 60 61 61 62 63 62 63 63 61 61 61 61 60 60 60
57 59 57 57 56 56 57 58 58 59 59 60 59 59 58 57 56 55 55 56 56 57
56 56 55 54 55 55 54 55 55 56 56 56 56 55 55 54 53 52 52 52 52 51
54 54 53 54 54 55 54 53 54 55 54 54 53 53 52 52 51 51 50 50 49 49
54 52 52 52 53 52 54 53 52 52 52 52 52 52 51 49 49 49 48 48 49 48
50 50 50 51 51 51 50 50 51 50 50 49 49 49 45 48 46 45 44 45 45 44
50 50 50 49 49 48 48 48 48 47 47 46 48 47 47 47 42 43 43 41 41 43
49 48 48 48 48 47 46 46 44 44 44 43 42 46 46 43 37 35 35 37 39 41
48 47 46 46 45 43 43 42 41 41 41 41 42 46 44 43 39 38 39 39 40 40
47 45 45 43 41 41 40 38 39 40 40 38 41 44 44 40 38 37 37 38 40 40
46 44 43 42 39 40 41 40 40 39 36 40 38 44 43 40 37 35 35 37 39 43
43 42 42 40 39 38 40 39 38 37 36 36 38 41 43 43 39 36 35 35 35 37

GFSNIL_sfc_temp_105.txt.gz
Temp
59 58 59 60 59 60 60 62 63 63 62 63 63 62 62 62 62 61 61 61 62 63
57 58 58 59 59 60 60 61 62 62 62 63 63 62 62 62 62 62 61 62 61 61
59 59 60 59 59 59 60 60 61 61 62 62 62 62 61 61 61 61 60 60 59 59
57 57 57 56 56 56 57 57 58 60 59 60 60 59 58 57 56 56 55 55 56 56
55 54 54 54 54 55 55 56 56 56 55 55 56 56 55 54 53 52 51 52 51 52
52 51 52 52 53 54 53 53 53 53 52 53 52 51 51 51 50 50 49 49 49 50
49 49 50 51 52 52 52 50 50 50 50 50 50 49 49 48 47 47 48 48 49 49
48 48 48 49 49 50 50 49 48 48 48 48 48 48 45 46 45 44 45 45 45 44
47 47 47 47 46 47 47 47 47 46 45 44 46 48 48 46 42 42 41 39 40 43
47 46 45 46 46 45 44 44 42 43 43 41 41 47 47 43 37 35 35 38 39 41
45 45 45 44 43 42 41 41 40 40 40 39 41 46 45 43 38 39 39 40 40 40
45 43 43 42 40 40 39 38 37 38 38 37 40 45 44 41 37 37 37 39 39 40
44 43 41 40 38 38 38 38 40 39 35 39 38 44 44 40 37 35 36 37 39 42
42 42 41 39 38 38 38 40 39 37 37 37 37 41 44 43 37 36 35 35 35 37

GFSNIL_sfc_temp_108.txt.gz
Temp
59 59 59 59 59 60 60 60 61 61 61 62 62 62 62 61 61 61 60 60 60 61
57 57 57 57 58 58 58 60 60 61 60 61 62 61 61 60 60 60 61 61 61 61
57 57 57 57 57 57 58 58 59 60 61 61 60 61 60 60 60 60 60 60 61 61
56 56 57 57 57 58 58 58 59 60 59 59 59 59 58 57 57 57 56 56 56 56
54 55 55 55 55 55 55 55 56 57 56 56 55 55 55 53 53 53 52 52 51 51
51 51 51 52 51 52 52 52 53 54 53 52 53 52 51 50 49 49 48 48 48 48
48 49 50 49 49 49 49 49 49 49 49 49 49 49 48 47 47 46 46 46 46 48
47 47 47 47 47 47 47 47 47 47 46 47 47 47 45 46 45 44 43 43 44 45
46 46 45 45 45 45 45 44 45 44 44 43 45 48 48 46 42 42 41 40 40 41
45 45 44 44 44 43 42 42 42 42 42 41 41 47 47 43 38 35 34 35 38 41
44 44 43 43 42 41 40 40 39 39 39 39 40 46 46 45 39 39 38 38 39 40
44 42 42 41 40 39 39 37 37 37 37 37 38 45 45 41 38 37 37 39 39 40
43 42 41 40 38 37 37 37 37 37 35 38 36 44 45 41 35 33 34 37 39 42
42 41 40 39 37 37 37 37 37 38 38 35 37 40 45 44 35 34 33 34 35 37

GFSNIL_sfc_temp_111.txt.gz
Temp
62 62 62 61 61 60 60 60 61 61 62 62 62 62 62 62 61 61 60 60 60 60
58 58 58 58 58 58 59 59 60 60 60 60 60 60 60 59 60 60 59 59 59 59
57 57 57 57 57 57 58 58 58 59 59 59 59 59 59 58 59 59 59 59 59 59
55 56 56 56 56 56 58 59 58 59 59 58 58 59 58 58 57 57 56 56 55 55
55 55 55 54 54 55 55 56 56 57 57 56 55 54 54 52 53 53 52 51 52 50
53 53 52 52 53 53 53 51 52 52 52 51 52 51 52 52 51 50 47 46 46 46
49 49 50 52 51 49 49 49 48 48 48 48 48 48 47 46 46 46 45 45 45 45
47 47 46 47 46 46 46 46 46 46 45 45 45 45 43 44 43 42 42 42 42 42
45 45 45 44 44 44 43 43 44 43 43 42 44 48 48 42 39 38 38 38 38 40
44 44 44 43 43 42 41 41 41 41 41 40 41 47 47 43 38 36 36 38 37 39
44 43 42 42 42 40 39 39 39 39 39 39 40 47 46 45 39 39 40 39 39 39
43 42 41 40 39 38 39 38 37 37 37 37 37 45 46 43 37 35 36 38 39 40
42 41 40 40 38 38 37 37 37 36 35 38 35 42 45 43 36 33 33 34 36 42
41 41 40 39 37 37 37 36 35 37 39 38 35 36 44 45 38 36 35 32 33 35

GFSNIL_sfc_temp_114.txt.gz
Temp
63 62 63 63 63 64 63 64 64 63 64 64 63 63 63 62 61 61 60 60 60 60
64 64 62 63 63 62 61 60 62 62 61 61 61 61 61 59 58 58 58 59 59 59
59 59 59 59 58 58 58 58 59 59 59 59 59 59 58 57 57 57 58 58 58 58
57 57 57 57 56 57 57 57 57 57 57 57 57 57 57 57 58 58 56 55 54 53
56 55 55 55 55 56 55 55 56 56 57 57 55 56 56 54 53 53 53 51 51 49
53 53 53 53 53 53 53 52 53 52 51 51 53 53 53 53 51 50 48 46 46 45
50 50 50 50 50 50 50 49 49 48 48 48 49 48 47 46 45 44 44 44 44 43
48 47 47 47 46 47 46 46 46 45 44 44 45 45 43 43 42 42 41 41 41 41
47 45 44 45 44 44 43 43 43 42 42 42 44 48 47 42 40 40 40 39 38 38
44 44 43 43 43 42 41 41 40 40 40 39 41 47 44 42 38 36 37 38 36 38
43 43 43 42 41 39 39 39 38 38 38 38 41 47 46 43 39 40 39 38 37 37
42 41 40 40 38 38 38 37 37 37 37 37 37 45 46 40 35 35 34 36 36 37
41 41 40 39 37 37 37 37 37 35 35 40 35 43 46 43 35 33 33 36 37 42
41 40 40 38 37 37 37 36 35 36 37 38 36 36 44 46 37 37 36 35 35 36

GFSNIL_sfc_temp_117.txt.gz
Temp
61 60 60 62 62 62 62 63 63 63 64 64 63 64 64 64 63 62 61 60 60 60
61 61 62 61 62 62 63 62 63 64 64 64 64 63 63 61 62 63 63 63 63 63
62 62 62 62 61 60 61 62 62 63 63 61 61 61 62 62 62 62 62 61 60 59
59 60 60 60 60 60 60 61 60 61 62 61 61 61 61 60 61 60 58 58 57 55
58 58 58 57 58 58 58 59 60 59 59 60 60 60 60 56 57 57 55 54 53 52
56 57 56 56 57 58 56 56 57 57 57 56 56 57 57 57 55 54 53 51 52 51
55 55 55 54 54 55 56 54 53 53 53 54 54 53 53 52 51 51 50 49 49 49
52 53 52 52 52 51 52 51 51 50 49 50 50 50 50 49 49 48 47 46 46 46
50 50 50 49 48 50 48 49 49 48 48 47 47 48 48 46 45 44 44 42 42 44
48 48 48 48 47 47 47 47 46 46 46 46 46 45 45 44 41 38 39 41 42 43
47 46 46 45 45 44 45 45 44 44 44 44 46 47 45 43 43 43 43 43 43 44
45 44 44 44 43 43 43 42 41 41 41 42 44 46 45 42 41 40 40 41 42 43
44 44 43 43 41 41 42 41 40 39 40 42 42 45 46 43 41 40 40 41 42 42
43 43 43 42 41 41 40 40 40 39 40 41 41 42 45 45 42 41 40 40 40 40